Raleigh-Durham Airport, NC

9:50 AM EST on December 15, 2017 (GMT -0500)
Raleigh-Durham International

Weather History for KRDU - November, 2012

Change the Weather History Date:

Sunday, November 25, 2012

  Actual Average Record
Temperature  
Mean Temperature 37 °F 49 °F  
Max Temperature 51 °F 60 °F 79 °F (1973)
Min Temperature 23 °F 38 °F 11 °F (1970)
Degree Days  
Heating Degree Days 28 16  
Month to date heating degree days 419 308  
Since 1 July heating degree days 596 497  
Cooling Degree Days 0 0  
Month to date cooling degree days 0 1  
Year to date cooling degree days 1871 1721  
Moisture  
Dew Point 19 °F    
Average Humidity 52    
Maximum Humidity 75    
Minimum Humidity 28    
Precipitation  
Precipitation 0.00 in 0.10 in 1.47 in (1957)
Month to date precipitation 0.47 2.60  
Year to date precipitation 37.76 39.75  
Sea Level Pressure  
Sea Level Pressure 30.12 in    
Wind  
Wind Speed 5 mph (SW)    
Max Wind Speed 16 mph    
Max Gust Speed 18 mph    
Visibility 10 miles    
Events      
T = Trace of Precipitation, MM = Missing Value Source: NWS Daily Summary

Daily Weather History Graph

Daily Weather History Graph

Search for Another Location

Airport or City:

Trip Planner

Search our weather history database for the weather conditions in past years. The results will help you decide how hot, cold, wet, or windy it might be!

Date:

Astronomy

Nov. 25, 2012 Rise Set
Actual Time 7:01 AM EST 5:02 PM EST
Civil Twilight 6:33 AM EST 5:30 PM EST
Nautical Twilight 6:02 AM EST 6:01 PM EST
Astronomical Twilight 5:31 AM EST 6:32 PM EST
Moon 3:15 PM EST (11/25) 4:17 AM EST (11/25)
Length of Visible Light 10h 56m
Length of Day
10h 00m
Waxing Gibbous, 93% of the Moon is Illuminated
Nov 25
Waxing Gibbous
Nov 28
Full
Dec 6
Last Quarter
Dec 13
New
Dec 20
First Quarter

Hourly Weather History & Observations

Time (EST) Temp. Windchill Dew Point Humidity Pressure Visibility Wind Dir Wind Speed Gust Speed Precip Events Conditions
12:51 AM 28.4 °F - 15.8 °F 59% 30.12 in 10.0 mi Calm Calm - N/A   Clear
1:51 AM 28.0 °F - 16.0 °F 61% 30.14 in 10.0 mi Calm Calm - N/A   Clear
2:51 AM 27.0 °F - 17.1 °F 66% 30.13 in 10.0 mi Calm Calm - N/A   Clear
3:51 AM 26.1 °F - 17.1 °F 69% 30.13 in 10.0 mi Calm Calm - N/A   Partly Cloudy
4:51 AM 27.0 °F - 17.1 °F 66% 30.12 in 10.0 mi Calm Calm - N/A   Partly Cloudy
5:51 AM 24.1 °F - 17.1 °F 75% 30.15 in 10.0 mi Calm Calm - N/A   Partly Cloudy
6:51 AM 24.1 °F - 16.0 °F 71% 30.16 in 10.0 mi Calm Calm - N/A   Partly Cloudy
7:51 AM 27.0 °F - 19.9 °F 75% 30.18 in 10.0 mi Calm Calm - N/A   Partly Cloudy
8:51 AM 32.0 °F 26.4 °F 21.9 °F 66% 30.17 in 10.0 mi SW 5.8 mph - N/A   Scattered Clouds
9:51 AM 37.9 °F 33.5 °F 19.9 °F 48% 30.19 in 10.0 mi Variable 5.8 mph - N/A   Partly Cloudy
10:51 AM 43.0 °F 37.7 °F 21.0 °F 42% 30.18 in 10.0 mi WSW 9.2 mph - N/A   Partly Cloudy
11:51 AM 45.0 °F 41.8 °F 19.9 °F 37% 30.14 in 10.0 mi Variable 5.8 mph - N/A   Partly Cloudy
12:51 PM 48.0 °F - 19.9 °F 33% 30.09 in 10.0 mi SW 13.8 mph 17.3 mph N/A   Partly Cloudy
1:51 PM 50.0 °F - 21.0 °F 32% 30.07 in 10.0 mi WSW 10.4 mph - N/A   Partly Cloudy
2:51 PM 51.1 °F - 21.0 °F 31% 30.06 in 10.0 mi SW 10.4 mph - N/A   Partly Cloudy
3:51 PM 51.1 °F - 19.9 °F 29% 30.05 in 10.0 mi SW 9.2 mph - N/A   Partly Cloudy
4:51 PM 48.0 °F - 21.0 °F 34% 30.04 in 10.0 mi SW 6.9 mph - N/A   Partly Cloudy
5:51 PM 42.1 °F 38.4 °F 21.0 °F 43% 30.06 in 10.0 mi SW 5.8 mph - N/A   Clear
6:51 PM 43.0 °F 40.3 °F 19.9 °F 40% 30.09 in 10.0 mi SW 4.6 mph - N/A   Clear
7:51 PM 42.1 °F 40.2 °F 21.0 °F 43% 30.09 in 10.0 mi SW 3.5 mph - N/A   Clear
8:51 PM 39.2 °F 33.6 °F 21.2 °F 49% 30.09 in 10.0 mi SW 8.1 mph - N/A   Clear
9:51 PM 41.0 °F 36.4 °F 23.0 °F 49% 30.09 in 10.0 mi SSW 6.9 mph - N/A   Clear
10:51 PM 37.9 °F 32.7 °F 23.0 °F 55% 30.09 in 10.0 mi SW 6.9 mph - N/A   Clear
11:51 PM 37.9 °F 32.7 °F 23.0 °F 55% 30.10 in 10.0 mi SW 6.9 mph - N/A   Clear